Regional Weather Roundup
Issued by NWS

Home | Current Version | Previous Version | Text Only | Print | Product List | Glossary On
Versions: 1 2 3 4 5 6 7 8 9 10 11 12 13 14 15 16 17 18 19 20 21 22 23 24 25 26 27 28 29 30 31 32 33 34 35 36 37 38 39 40 41 42 43 44 45 46 47 48 49 50
000
ASUS42 KFFC 161910
RWRGA
WEATHER ROUNDUP FOR GEORGIA
NATIONAL WEATHER SERVICE PEACHTREE CITY GA
200 PM EST SAT DEC 16 2017

NOTE: "FAIR" INDICATES FEW OR NO CLOUDS BELOW 12,000 FEET WITH NO
SIGNIFICANT WEATHER AND/OR OBSTRUCTIONS TO VISIBILITY.

* = USE WITH CAUTION. THE STATIONS MARKED WITH AN ASTERISK MAY NOT
REPORT WEATHER SUCH AS PRECIPITATION, FOG, OR THUNDER AND ARE NOT
QUALITY CONTROLLED BY NWS.

THE REMARK "TC" DENOTES TEMPERATURE READING IN DEGREES CELSIUS.

GAZ001>058-162000-
NORTH GEORGIA

CITY           SKY/WX    TMP DP  RH WIND       PRES   REMARKS
ATLANTA        CLOUDY    51  28  41 NW6       30.24F
ATHENS         SUNNY     51  23  33 CALM      30.25F
CHAMBLEE       CLOUDY    50  25  37 N6        30.24F
PEACHTREE CITY SUNNY     54  26  34 VRB5      30.26F
ROME           SUNNY     48  28  46 CALM      30.26F
WEST ATLANTA   CLOUDY    49  27  42 CALM      30.24F
GAINESVILLE    SUNNY     48  23  37 SW5       30.23F
CARTERSVILLE   CLOUDY    47  28  47 VRB7      30.27F


CITY           SKY/WX    TMP DP  RH WIND       PRES   REMARKS
DALTON*        SUNNY     46  30  53 CALM      30.28F
LAWRENCEVILLE* SUNNY     50  24  36 VRB5      30.24F
MARIETTA       PTSUNNY   49  25  39 W6        30.24F
CANTON*        CLOUDY    50  28  43 W6        30.25S
$$

GAZ059>098-102>109-162000-
CENTRAL GEORGIA

CITY           SKY/WX    TMP DP  RH WIND       PRES   REMARKS
AUGUSTA-BUSH   SUNNY     52  26  36 S5        30.26F
AUGUSTA-DANIEL SUNNY     51  25  36 CALM      30.26F
COLUMBUS       SUNNY     54  25  32 N6        30.26F
MACON          SUNNY     54  25  32 CALM      30.26F
ROBINS AFB     SUNNY     53  27  36 SW5       30.25F


CITY           SKY/WX    TMP DP  RH WIND       PRES   REMARKS
LAGRANGE*      SUNNY     54  27  36 CALM      30.26F
SYLVANIA*      SUNNY     52  32  45 SW5       30.27F
MILLEDGEVILLE* SUNNY     52  30  43 E3        30.27F
$$

GAZ099>101-110>166-162000-
SOUTH GEORGIA

CITY           SKY/WX    TMP DP  RH WIND       PRES   REMARKS
SAVANNAH       MOSUNNY   54  26  34 VRB3      30.27F
VALDOSTA       SUNNY     60  29  30 VRB3      30.25F
ALMA           SUNNY     56  27  32 SW3       30.26F
ST SIMONS      SUNNY     54  39  57 E9        30.26F
FT STEWART       N/A     56  28  35 CALM        N/A
ALBANY         SUNNY     58  26  29 NE6       30.29F
HUNTER AFB     SUNNY     55  28  36 NE3       30.28F
MOODY AFB      SUNNY     59  28  30 N6        30.24F
BRUNSWICK      SUNNY     57  28  33 CALM      30.27F


CITY           SKY/WX    TMP DP  RH WIND       PRES   REMARKS
BAINBRIDGE*    SUNNY     61  34  36 NE8       30.26F
MOULTRIE*      SUNNY     59  30  33 NE5       30.26F
VIDALIA*       SUNNY     55  32  41 CALM      30.27S
WAYCROSS*      SUNNY     57  22  25 NE3       30.26F
DOUGLAS*       SUNNY     55  27  33 NE5       30.28S
$$




USA.gov is the U.S. government's official web portal to all federal, state and local government web resources and services.